Estación Meteorológica Peña el Pijo (Robertgarden) [ 12/14/19 08:41:17 CET ]

Fecha Hora Presion(HPa) Temp (°C) Humedad % Rocio (°C) Viento ( m/s) Direccion Lluvia 1Hora(mm) Lluvia 24H(mm) LLuvia Total(mm)
2019-Dec-11 01:09:10 1012.900 - - - - S     39.88
2019-Dec-11 02:10:40 1012.300 - - - - S     39.88
2019-Dec-11 03:09:51 1012.400 - - - - S     39.88
2019-Dec-11 04:09:38 1012.200 - - - - S     39.88
2019-Dec-11 05:11:33 1011.600 - - - - S     39.88
2019-Dec-11 06:09:45 1011.400 - - - - S     39.88
2019-Dec-11 07:09:09 1011.400 - - - - S     39.88
2019-Dec-11 08:09:32 1011.100 - - - - S     39.88
2019-Dec-11 09:09:13 1011.200 - - - - S     39.88
2019-Dec-11 10:08:55 1011.100 - - - - S     39.88
2019-Dec-11 11:09:00 1011.200 - - - - S     39.88
2019-Dec-11 12:09:07 1010.600 - - - - S     39.88
2019-Dec-11 13:09:20 1010.600 - - - - S     39.88
2019-Dec-11 14:09:05 1009.900 - - - - S     39.88
2019-Dec-11 15:09:11 1009.500 - - - - S     39.88
2019-Dec-11 16:09:55 1009.300 - - - - S     39.88
2019-Dec-11 17:09:02 1009.600 - - - - S     39.88
2019-Dec-11 18:09:08 1010.900 - - - - S     39.88
2019-Dec-11 19:08:53 1011.500 - - - - S     39.88
2019-Dec-11 20:08:50 1011.800 - - - - S     39.88
2019-Dec-11 21:09:07 1012.700 - - - - S     39.88
2019-Dec-11 22:09:48 1012.800 - - - - S     39.88
2019-Dec-11 23:09:14 1013.300 - - - - S     39.88

Temperatura Máxima:    Temperatura Mínima:
Presión Máxima:1013.300 Hpa    Presión Mínima:1009.300 Hpa


Volver